Wind_Speed
32 33 34 34 34 35 35 35 35 35 35 35 35 34 34 34 34 34 34 34 33 33 32 32 32 32 32 32 32 32 33 33 33 33 33 33 33 32 31 31 31 30 30
32 32 33 33 34 34 34 34 35 36 36 36 36 36 36 36 36 36 36 36 35 35 34 34 34 34 34 33 33 33 34 34 34 34 34 34 33 33 32 32 31 31 31
32 33 33 34 33 34 34 34 35 36 37 38 38 38 38 38 38 38 38 38 38 37 36 36 36 36 36 36 35 35 35 35 35 35 35 35 34 34 33 33 32 32 32
34 34 34 34 35 35 35 35 36 37 38 39 39 39 39 40 40 40 40 39 39 39 38 38 38 39 39 38 37 38 38 37 37 37 36 35 35 35 35 34 34 34 34
36 36 37 37 38 38 37 37 38 38 39 39 39 40 40 40 41 41 41 41 40 40 40 40 40 40 40 40 40 40 40 40 39 39 39 38 38 37 37 37 37 36 35
38 39 39 38 38 39 39 39 39 39 40 41 41 41 41 40 41 41 42 43 43 42 42 42 42 42 42 42 42 42 42 42 41 41 40 40 40 39 40 39 39 38 38
40 40 40 39 39 39 40 40 40 38 39 41 43 43 41 41 41 42 42 43 44 44 44 44 44 43 43 44 43 43 43 44 44 43 43 42 42 42 42 41 40 39 39
40 41 41 40 40 40 40 39 40 39 40 41 43 44 43 43 42 43 43 44 45 45 45 44 44 44 43 44 44 44 44 44 44 44 43 43 43 42 42 42 42 42 41
41 41 42 42 40 39 39 38 39 39 40 40 41 43 44 44 44 43 43 44 45 46 46 45 45 44 43 44 44 44 45 44 44 45 45 45 43 43 43 42 42 43 43
40 41 40 40 39 39 38 39 39 39 40 39 41 42 43 44 45 44 45 45 45 46 46 47 46 45 44 44 44 44 45 45 45 44 45 45 44 44 43 43 43 43 44
39 38 39 39 39 38 38 38 38 38 39 40 40 41 42 43 43 44 44 45 45 45 46 47 47 47 46 45 46 45 45 46 46 45 46 46 46 45 46 45 45 45 46
38 38 37 38 38 38 38 38 38 38 39 40 40 41 42 42 42 43 43 43 44 43 44 46 45 45 46 46 45 44 45 44 44 44 45 46 46 47 47 47 47 47 48
38 37 37 37 37 37 37 37 38 38 39 39 40 41 42 42 42 42 42 43 42 43 44 44 44 44 44 45 45 44 43 42 43 44 44 45 46 47 48 48 48 48 49
36 36 36 35 35 35 36 36 37 37 37 39 40 40 41 41 42 42 41 41 40 41 42 42 42 43 43 44 44 44 44 43 44 44 44 44 45 45 47 48 49 49 50
34 34 33 33 34 34 34 35 35 36 37 38 38 39 40 40 41 41 41 40 40 40 40 40 41 41 41 41 41 41 42 43 43 44 44 44 45 45 47 47 48 50 51
33 33 33 33 33 34 33 34 35 36 36 37 37 38 39 39 39 39 40 40 39 39 38 38 38 38 38 39 39 40 41 43 43 43 44 44 45 46 47 48 49 49 50
33 33 33 33 33 33 33 33 34 34 35 35 35 36 36 36 37 37 37 37 37 37 36 36 37 37 37 38 39 40 40 41 41 42 43 44 45 46 47 48 49 49 50
33 33 34 34 34 34 34 34 35 34 34 34 34 34 35 35 35 36 35 36 37 37 37 36 36 36 37 37 37 38 40 40 41 42 43 44 45 46 47 48 48 48 49
33 34 35 35 34 35 35 35 34 34 34 34 34 34 35 35 36 35 36 36 37 37 37 36 36 37 37 37 37 38 39 40 41 42 43 45 46 47 48 48 48 49 50
34 34 35 35 35 34 34 34 34 34 34 34 34 35 35 35 35 35 36 36 36 35 35 36 37 37 38 38 38 39 39 41 42 42 44 45 45 46 47 47 48 49 49
34 34 34 34 34 34 34 34 34 34 34 34 35 34 34 34 35 35 35 35 35 35 36 38 38 38 38 39 39 40 41 42 43 44 44 45 46 46 46 47 47 48 49
35 35 35 34 34 34 34 34 34 34 33 33 33 33 34 34 34 34 34 35 35 36 37 37 37 38 38 39 40 41 42 42 43 45 45 46 46 47 47 48 48 48 48
35 35 35 35 34 34 33 33 33 32 32 32 32 33 33 33 33 33 34 34 35 36 36 36 37 37 39 40 40 41 42 43 44 45 45 45 46 47 47 48 48 49 48
34 34 34 34 33 33 33 33 32 32 31 31 32 32 31 32 32 33 33 34 35 36 36 36 36 37 38 40 41 41 42 43 44 45 45 45 46 47 47 48 49 49 49
33 33 33 33 33 33 33 33 32 32 31 31 31 31 31 32 33 33 34 34 35 36 36 37 37 38 39 41 42 43 43 44 44 46 47 47 47 47 47 48 49 49 49
33 33 33 33 33 33 33 32 32 31 31 31 31 31 31 31 32 33 34 34 35 36 37 38 39 40 41 42 43 43 44 45 45 46 47 47 48 48 47 47 48 48 48
Wind_Direction
268 269 269 269 267 266 265 265 265 265 265 264 264 265 266 268 270 271 271 272 273 274 274 275 276 278 279 279 280 281 280 280 279 280 281 283 283 284 284 285 285 285 286
271 270 270 270 268 266 265 265 265 265 265 265 264 264 265 267 269 270 271 271 271 273 274 275 277 277 279 280 280 281 281 280 280 279 281 281 282 282 283 283 283 283 284
272 272 271 270 269 268 267 267 268 267 265 265 265 265 266 267 267 269 270 270 271 272 273 274 276 277 278 278 278 280 279 280 280 280 280 280 279 280 281 281 282 281 282
271 272 273 271 270 269 269 270 269 269 267 266 266 265 266 266 268 268 269 270 271 271 272 273 274 275 276 277 277 278 278 279 279 279 279 279 279 280 280 281 281 281 281
270 272 273 272 272 271 270 270 269 269 269 266 265 266 266 267 268 268 268 269 270 271 272 273 273 275 275 275 276 277 278 278 279 279 279 279 280 280 280 281 281 281 281
270 271 272 273 273 273 271 270 270 270 269 267 265 265 267 268 268 268 268 269 270 270 271 272 273 274 274 275 276 276 277 276 277 277 277 277 277 279 280 280 280 279 280
271 272 272 272 273 273 272 270 270 270 270 268 266 265 267 270 269 269 269 270 270 269 270 272 272 273 273 274 276 276 276 274 274 275 274 275 276 277 278 278 278 278 278
272 272 273 273 273 273 273 271 270 269 269 269 268 267 267 270 270 271 270 270 270 270 270 271 272 273 274 274 274 274 275 275 274 273 273 274 275 277 277 277 277 278 278
270 271 272 272 272 273 273 272 271 269 270 270 270 270 270 270 269 270 270 270 272 271 271 271 271 272 274 274 274 274 274 276 276 273 274 273 273 276 277 277 277 277 277
273 272 271 271 272 274 274 273 272 271 271 272 271 271 272 273 271 270 270 271 272 272 271 271 272 273 274 274 274 274 276 276 276 275 274 273 273 275 276 276 276 276 277
274 274 274 273 274 275 275 276 275 275 274 273 273 272 273 274 272 272 272 272 273 273 272 273 274 274 275 275 275 276 276 275 275 276 275 274 274 274 274 275 275 276 277
276 276 275 275 275 275 275 276 277 276 277 276 275 274 275 275 274 274 274 273 273 274 275 274 274 275 275 275 275 276 276 275 275 276 276 276 275 275 275 275 276 277 278
278 278 277 275 274 275 275 275 276 277 277 277 276 276 276 275 274 275 276 275 274 274 274 274 275 276 275 275 274 275 275 276 276 277 277 276 275 276 276 276 277 278 279
279 279 277 275 275 275 276 276 276 277 278 278 278 278 278 277 276 277 277 276 275 275 275 275 275 276 276 276 276 275 275 277 278 278 278 277 276 276 276 276 277 277 278
278 278 276 276 276 276 277 277 277 278 278 278 278 278 279 279 279 277 277 277 276 276 276 277 278 278 277 278 278 276 277 277 278 278 278 278 278 278 278 278 278 278 278
277 277 277 277 277 279 279 278 278 278 278 279 279 278 279 278 278 278 277 277 277 276 276 277 277 277 277 278 278 278 278 277 277 278 278 279 279 279 280 280 280 279 278
275 276 277 278 279 280 280 280 280 280 280 281 280 279 279 278 278 278 278 278 277 278 277 277 277 277 277 277 278 280 280 279 279 279 279 280 280 280 280 280 280 280 280
274 275 276 278 278 279 279 280 280 280 280 280 280 281 280 279 279 278 278 277 277 277 277 277 277 278 279 279 279 280 280 280 280 280 281 282 282 281 281 281 281 280 280
274 275 276 277 278 278 279 279 280 280 279 279 280 280 280 279 278 277 278 277 277 277 277 276 277 279 280 281 281 281 281 282 282 282 282 282 283 283 283 283 282 281 281
275 276 276 276 276 278 278 278 279 279 279 279 279 279 279 278 277 277 278 278 277 277 277 277 278 280 281 281 282 282 283 283 283 284 284 285 284 285 285 284 284 283 282
276 276 276 276 276 277 277 277 277 277 278 279 279 279 279 278 277 277 277 278 277 276 277 278 280 281 281 282 283 284 284 285 285 285 286 286 285 286 286 286 286 285 284
277 277 277 277 276 276 277 277 277 278 278 278 278 279 279 278 277 277 277 277 278 279 280 281 282 282 282 283 284 286 286 286 287 286 286 286 285 286 286 287 287 287 286
277 277 277 278 277 277 277 277 277 276 277 278 279 279 279 279 278 278 278 279 280 281 281 281 281 282 283 284 286 288 288 289 289 288 288 287 286 287 287 287 287 287 287
278 278 278 277 277 276 276 275 276 276 277 277 278 279 279 279 279 280 279 280 282 282 282 282 283 284 285 287 288 290 290 290 291 290 290 289 288 287 287 287 287 287 287
278 278 277 277 276 276 275 274 275 276 277 278 278 279 279 279 280 280 280 281 282 283 282 283 285 286 287 289 290 291 292 292 292 292 291 291 290 288 288 288 287 287 286
277 277 277 276 276 276 275 274 274 275 276 278 279 279 280 281 282 282 282 283 284 284 284 284 286 287 289 290 292 293 293 294 294 294 294 293 292 290 288 288 287 287 286
Height
5809 5809 5809 5809 5809 5809 5810 5811 5812 5813 5814 5815 5816 5816 5817 5818 5818 5819 5819 5819 5819 5820 5820 5820 5820 5820 5820 5819 5819 5818 5818 5817 5816 5816 5815 5815 5814 5813 5812 5811 5810 5809 5808
5801 5801 5801 5801 5801 5801 5802 5803 5804 5804 5805 5806 5807 5808 5809 5810 5810 5811 5811 5812 5812 5812 5812 5813 5813 5812 5812 5812 5812 5811 5811 5810 5809 5809 5808 5807 5807 5806 5805 5804 5803 5802 5801
5794 5794 5793 5793 5793 5793 5794 5794 5795 5796 5797 5798 5799 5800 5801 5801 5802 5803 5803 5804 5804 5804 5805 5805 5805 5805 5804 5804 5804 5803 5803 5802 5802 5801 5800 5800 5799 5798 5798 5797 5796 5795 5794
5786 5786 5786 5785 5785 5785 5786 5786 5787 5787 5788 5789 5790 5791 5791 5792 5793 5794 5794 5795 5795 5796 5797 5796 5797 5796 5796 5796 5796 5795 5795 5794 5794 5793 5792 5792 5791 5790 5790 5789 5788 5787 5786
5778 5778 5778 5777 5777 5777 5777 5778 5778 5778 5779 5779 5781 5782 5782 5783 5784 5784 5785 5785 5786 5787 5787 5787 5788 5787 5787 5787 5787 5787 5786 5785 5785 5784 5784 5783 5782 5782 5781 5780 5779 5779 5778
5770 5769 5769 5769 5768 5768 5769 5769 5769 5769 5770 5770 5771 5772 5773 5773 5773 5774 5775 5775 5776 5777 5777 5778 5778 5778 5778 5777 5777 5777 5776 5776 5775 5775 5774 5774 5773 5772 5772 5771 5770 5770 5769
5761 5760 5760 5760 5759 5759 5759 5759 5760 5760 5760 5760 5761 5762 5763 5763 5763 5764 5765 5765 5766 5766 5767 5767 5768 5768 5768 5767 5767 5767 5766 5766 5765 5765 5764 5764 5763 5762 5762 5761 5761 5760 5759
5752 5751 5751 5751 5750 5750 5750 5750 5750 5751 5751 5751 5751 5752 5753 5755 5754 5754 5755 5755 5755 5755 5756 5756 5757 5757 5757 5757 5757 5756 5756 5755 5754 5754 5754 5753 5753 5752 5751 5751 5750 5750 5749
5743 5742 5742 5741 5741 5741 5741 5740 5741 5741 5741 5741 5741 5742 5743 5744 5744 5745 5744 5744 5744 5745 5745 5745 5746 5746 5746 5746 5746 5745 5744 5744 5743 5743 5743 5743 5742 5741 5741 5740 5739 5739 5738
5733 5733 5732 5732 5732 5732 5731 5731 5731 5731 5731 5732 5732 5732 5732 5732 5732 5733 5733 5733 5733 5733 5734 5734 5735 5735 5735 5735 5735 5734 5733 5733 5732 5732 5731 5731 5730 5730 5730 5729 5728 5727 5727
5724 5724 5723 5723 5723 5722 5722 5722 5722 5721 5721 5722 5722 5722 5722 5721 5721 5721 5723 5723 5723 5723 5723 5723 5724 5724 5724 5724 5723 5723 5722 5722 5721 5720 5720 5719 5719 5718 5718 5717 5716 5716 5715
5715 5714 5714 5713 5713 5713 5713 5713 5712 5712 5712 5712 5712 5712 5712 5711 5711 5711 5712 5712 5712 5713 5712 5712 5712 5713 5713 5712 5712 5711 5711 5710 5709 5709 5708 5707 5707 5706 5706 5705 5704 5704 5703
5706 5705 5704 5704 5704 5703 5703 5703 5703 5703 5702 5702 5702 5701 5701 5701 5701 5701 5701 5701 5702 5702 5701 5702 5701 5701 5701 5701 5700 5700 5700 5698 5698 5697 5696 5695 5695 5694 5694 5693 5692 5691 5690
5698 5696 5695 5695 5694 5694 5694 5693 5693 5693 5693 5692 5692 5691 5691 5690 5690 5690 5691 5691 5691 5692 5691 5691 5690 5690 5690 5689 5689 5689 5688 5687 5687 5686 5685 5684 5683 5682 5681 5680 5679 5678 5677
5689 5688 5687 5686 5686 5685 5685 5684 5684 5684 5683 5683 5682 5681 5681 5680 5680 5680 5680 5680 5681 5681 5681 5680 5680 5679 5679 5679 5678 5678 5677 5676 5675 5674 5673 5672 5670 5669 5668 5667 5665 5664 5662
5681 5680 5679 5678 5678 5677 5676 5676 5675 5675 5674 5673 5673 5672 5671 5670 5670 5670 5669 5670 5670 5670 5670 5670 5669 5669 5668 5668 5667 5666 5665 5664 5663 5662 5661 5660 5658 5657 5655 5654 5652 5650 5649
5672 5672 5671 5670 5670 5669 5668 5668 5667 5666 5665 5664 5663 5662 5661 5661 5660 5660 5660 5660 5660 5660 5660 5660 5659 5658 5658 5658 5657 5655 5654 5653 5652 5650 5649 5647 5646 5644 5643 5640 5638 5636 5634
5664 5664 5663 5662 5661 5661 5660 5659 5659 5658 5657 5656 5655 5654 5653 5652 5652 5651 5651 5650 5650 5650 5650 5650 5649 5648 5648 5647 5646 5645 5643 5642 5640 5638 5636 5635 5633 5631 5629 5626 5624 5622 5620
5655 5655 5654 5654 5653 5652 5651 5651 5650 5649 5648 5647 5646 5645 5644 5644 5643 5642 5641 5641 5640 5640 5640 5640 5639 5638 5637 5636 5635 5634 5632 5630 5628 5626 5624 5622 5620 5617 5615 5612 5610 5608 5606
5646 5646 5645 5645 5644 5643 5642 5641 5641 5640 5639 5638 5637 5636 5635 5634 5634 5633 5632 5631 5631 5630 5630 5629 5629 5628 5627 5626 5624 5622 5620 5618 5615 5613 5611 5608 5606 5603 5601 5598 5596 5593 5591
5637 5636 5636 5635 5634 5634 5633 5632 5632 5631 5630 5629 5628 5627 5626 5625 5624 5623 5623 5622 5621 5621 5620 5619 5618 5617 5616 5615 5613 5611 5608 5606 5603 5600 5598 5595 5593 5590 5587 5584 5581 5579 5576
5627 5627 5626 5626 5625 5624 5624 5623 5622 5622 5621 5620 5619 5618 5617 5616 5615 5614 5613 5613 5612 5611 5610 5609 5608 5607 5605 5603 5601 5599 5596 5594 5591 5588 5585 5582 5579 5576 5573 5570 5567 5564 5562
5618 5617 5617 5616 5616 5615 5614 5614 5613 5612 5611 5611 5610 5609 5608 5607 5606 5605 5604 5603 5602 5601 5600 5599 5597 5596 5594 5592 5590 5587 5584 5581 5577 5574 5572 5569 5565 5563 5559 5556 5553 5550 5547
5608 5608 5607 5607 5606 5606 5605 5604 5604 5603 5602 5602 5601 5600 5599 5598 5597 5596 5595 5594 5592 5591 5589 5588 5587 5585 5582 5580 5577 5575 5572 5569 5565 5560 5558 5556 5552 5549 5546 5541 5538 5535 5532
5599 5598 5598 5597 5597 5596 5596 5595 5594 5594 5593 5593 5592 5591 5590 5588 5588 5586 5585 5584 5582 5580 5579 5577 5575 5573 5571 5568 5565 5562 5559 5556 5552 5548 5544 5541 5538 5536 5533 5528 5524 5520 5517
5589 5589 5588 5588 5588 5587 5586 5586 5585 5585 5584 5584 5582 5581 5580 5579 5578 5576 5575 5573 5572 5570 5568 5566 5564 5562 5559 5556 5553 5549 5546 5542 5538 5535 5530 5527 5523 5519 5519 5515 5509 5505 5501